Location: Amsterdam
(30.7274°N, 84.4357°W)
Time: 04:28:05
(UTC+00:00)

MOZHAYETS 4 - Pass Details

Date: 17 March 2026
Orbit: 642 x 659 km, 98.3° (Epoch: 15 April)

Event Time Altitude Azimuth Distance (km) Brightness Sun altitude
Rises 10:52:40 0° 171° (S) 2,972 11.1 -12.1°
Reaches altitude 10° 10:54:53 10° 174° (S) 2,065 10.3 -11.6°
Maximum altitude 10:59:22 71° 258° (WSW) 698 7.6 -10.7°
Drops below altitude 10° 11:03:53 10° 343° (NNW) 2,074 10.1 -9.7°
Sets 11:06:07 0° 345° (NNW) 2,988 11.0 -9.2°
